| time (UTC) | temp C | wind direction | speed KPH | gust KPH | rain 1hr cm | rain 24hr cm | rain mn cm | humidity % | barometer mb |
| 20260506013015 | 19 | 94 | 0.0 | 4.8 | 0.00 | 0.00 | 0.00 | 52 | 1014.1 |
| 20260506011534 | 19 | 94 | 0.0 | 3.2 | 0.00 | 0.00 | 0.00 | 51 | 1014.2 |
| 20260506010119 | 19 | 94 | 0.0 | 4.8 | 0.00 | 0.00 | 0.00 | 50 | 1014.2 |
| 20260506004556 | 20 | 94 | 0.0 | 8.0 | 0.00 | 0.00 | 0.00 | 49 | 1014.2 |
| 20260506003042 | 20 | 94 | 0.0 | 8.0 | 0.00 | 0.00 | 0.00 | 48 | 1014.2 |
| 20260506001542 | 20 | 94 | 0.0 | 3.2 | 0.00 | 0.00 | 0.00 | 48 | 1014.1 |
| 20260506000027 | 20 | 94 | 0.0 | 3.2 | 0.00 | 0.00 | 0.00 | 47 | 1014.1 |
| 20260505234530 | 20 | 94 | 0.0 | 4.8 | 0.00 | 0.00 | 0.00 | 48 | 1014.2 |
| 20260505233032 | 20 | 94 | 0.0 | 8.0 | 0.00 | 0.00 | 0.00 | 47 | 1014.2 |
| 20260505231536 | 20 | 94 | 0.0 | 3.2 | 0.00 | 0.00 | 0.00 | 48 | 1014.2 |
| 20260505230028 | 20 | 90 | 0.0 | 6.4 | 0.00 | 0.00 | 0.00 | 47 | 1014.2 |
| 20260505224525 | 21 | 103 | 1.6 | 6.4 | 0.00 | 0.00 | 0.00 | 44 | 1014.3 |
| 20260505223024 | 22 | 94 | 0.0 | 4.8 | 0.00 | 0.00 | 0.00 | 41 | 1014.4 |
| 20260505221524 | 23 | 77 | 0.0 | 4.8 | 0.00 | 0.00 | 0.00 | 40 | 1014.3 |
| 20260505220008 | 22 | 82 | 0.0 | 8.0 | 0.00 | 0.00 | 0.00 | 41 | 1014.3 |
| 20260505214511 | 23 | 90 | 1.6 | 11.3 | 0.00 | 0.00 | 0.00 | 40 | 1014.5 |
| 20260505213049 | 24 | 34 | 1.6 | 9.7 | 0.00 | 0.00 | 0.00 | 37 | 1014.6 |
| 20260505211547 | 24 | 96 | 0.0 | 11.3 | 0.00 | 0.00 | 0.00 | 36 | 1014.5 |
| 20260505210028 | 23 | 76 | 0.0 | 6.4 | 0.00 | 0.00 | 0.00 | 40 | 1014.5 |
| 20260505204527 | 23 | 74 | 0.0 | 8.0 | 0.00 | 0.00 | 0.00 | 41 | 1014.5 |
| 20260505203012 | 24 | 80 | 0.0 | 6.4 | 0.00 | 0.00 | 0.00 | 37 | 1014.6 |
| 20260505201507 | 23 | 63 | 0.0 | 6.4 | 0.00 | 0.00 | 0.00 | 40 | 1014.6 |
| 20260505200048 | 23 | 100 | 0.0 | 8.0 | 0.00 | 0.00 | 0.00 | 42 | 1014.7 |
| 20260505194556 | 23 | 81 | 0.0 | 4.8 | 0.00 | 0.00 | 0.00 | 44 | 1014.8 |
| 20260505193034 | 22 | 77 | 0.0 | 3.2 | 0.00 | 0.00 | 0.00 | 46 | 1014.9 |
| 20260505191523 | 21 | 92 | 0.0 | 6.4 | 0.00 | 0.00 | 0.00 | 49 | 1014.9 |
| 20260505190100 | 20 | 98 | 0.0 | 4.8 | 0.00 | 0.00 | 0.00 | 51 | 1015.0 |
| 20260505184558 | 20 | 78 | 0.0 | 6.4 | 0.00 | 0.00 | 0.00 | 54 | 1015.1 |
| 20260505183048 | 20 | 121 | 0.0 | 11.3 | 0.00 | 0.00 | 0.00 | 52 | 1015.3 |
| 20260505181537 | 19 | 30 | 0.0 | 6.4 | 0.00 | 0.00 | 0.00 | 54 | 1015.2 |
| 20260505180019 | 18 | 76 | 0.0 | 9.7 | 0.00 | 0.00 | 0.00 | 62 | 1015.1 |
| 20260505174512 | 17 | 65 | 0.0 | 6.4 | 0.00 | 0.00 | 0.00 | 63 | 1015.0 |
| 20260505173055 | 16 | 82 | 0.0 | 8.0 | 0.00 | 0.00 | 0.00 | 67 | 1014.8 |
| 20260505171552 | 15 | 126 | 0.0 | 4.8 | 0.00 | 0.00 | 0.00 | 74 | 1014.7 |
| 20260505170047 | 14 | 93 | 0.0 | 4.8 | 0.00 | 0.00 | 0.00 | 77 | 1014.8 |
| 20260505164555 | 13 | 96 | 0.0 | 4.8 | 0.00 | 0.00 | 0.00 | 81 | 1014.7 |
| 20260505163040 | 12 | 69 | 0.0 | 4.8 | 0.00 | 0.00 | 0.00 | 84 | 1014.7 |
| 20260505161548 | 12 | 60 | 0.0 | 3.2 | 0.00 | 0.00 | 0.00 | 85 | 1014.6 |
| 20260505153014 | 11 | 59 | 0.0 | 4.8 | 0.00 | 0.00 | 0.00 | 89 | 1014.6 |
| 20260505151512 | 11 | 59 | 0.0 | 6.4 | 0.00 | 0.00 | 0.00 | 89 | 1014.4 |
| 20260505124545 | 10 | 155 | 0.0 | 8.0 | 0.00 | 0.00 | 0.00 | 91 | 1013.4 |
| 20260505123017 | 10 | 106 | 0.0 | 6.4 | 0.00 | 0.00 | 0.00 | 91 | 1013.2 |
| 20260505121516 | 10 | 144 | 1.6 | 9.7 | 0.00 | 0.00 | 0.00 | 90 | 1013.3 |
| 20260505120114 | 11 | 136 | 1.6 | 8.0 | 0.00 | 0.00 | 0.00 | 89 | 1013.4 |
| 20260505114555 | 11 | 160 | 0.0 | 12.9 | 0.00 | 0.00 | 0.00 | 88 | 1013.2 |
| 20260505113111 | 11 | 164 | 1.6 | 16.1 | 0.00 | 0.00 | 0.00 | 86 | 1013.2 |
| 20260505111534 | 11 | 111 | 0.0 | 8.0 | 0.00 | 0.00 | 0.00 | 85 | 1013.3 |
| 20260505101554 | 12 | 82 | 0.0 | 8.0 | 0.00 | 0.00 | 0.00 | 82 | 1013.2 |
| 20260505100054 | 12 | 86 | 1.6 | 9.7 | 0.00 | 0.00 | 0.00 | 81 | 1013.2 |
| 20260505094535 | 12 | 88 | 0.0 | 4.8 | 0.00 | 0.00 | 0.00 | 81 | 1013.1 |
| 20260505093034 | 12 | 96 | 0.0 | 3.2 | 0.00 | 0.00 | 0.00 | 80 | 1013.1 |
| 20260505091516 | 12 | 86 | 0.0 | 9.7 | 0.00 | 0.00 | 0.00 | 80 | 1013.2 |
| 20260505090016 | 12 | 89 | 0.0 | 4.8 | 0.00 | 0.00 | 0.00 | 81 | 1013.3 |
| 20260505084558 | 12 | 92 | 0.0 | 4.8 | 0.00 | 0.00 | 0.00 | 81 | 1013.2 |
| 20260505083103 | 12 | 109 | 0.0 | 4.8 | 0.00 | 0.00 | 0.00 | 81 | 1013.2 |
| 20260505081546 | 12 | 117 | 0.0 | 1.6 | 0.00 | 0.00 | 0.00 | 80 | 1013.3 |
| 20260505080039 | 12 | 117 | 0.0 | 1.6 | 0.00 | 0.00 | 0.00 | 80 | 1013.4 |
| 20260505074520 | 12 | 117 | 0.0 | 3.2 | 0.00 | 0.00 | 0.00 | 80 | 1013.5 |
| 20260505073020 | 12 | 131 | 0.0 | 4.8 | 0.00 | 0.00 | 0.00 | 79 | 1013.4 |
| 20260505071502 | 12 | 137 | 0.0 | 3.2 | 0.00 | 0.00 | 0.00 | 79 | 1013.4 |
| 20260505070001 | 13 | 89 | 0.0 | 1.6 | 0.00 | 0.00 | 0.00 | 78 | 1013.4 |
| 20260505064548 | 13 | 89 | 0.0 | 3.2 | 0.00 | 0.00 | 0.00 | 77 | 1013.3 |
| 20260505063044 | 13 | 138 | 0.0 | 6.4 | 0.00 | 0.00 | 0.00 | 77 | 1013.2 |
| 20260505061526 | 13 | 101 | 0.0 | 4.8 | 0.00 | 0.00 | 0.00 | 77 | 1013.4 |
| 20260505060033 | 13 | 106 | 0.0 | 4.8 | 0.00 | 0.00 | 0.00 | 77 | 1013.5 |
| 20260505054506 | 13 | 108 | 0.0 | 4.8 | 0.00 | 0.00 | 0.00 | 77 | 1013.4 |
| 20260505053006 | 13 | 109 | 0.0 | 4.8 | 0.00 | 0.00 | 0.00 | 76 | 1013.5 |
| 20260505051553 | 13 | 109 | 0.0 | 6.4 | 0.00 | 0.00 | 0.00 | 76 | 1013.6 |
| 20260505041551 | 13 | 109 | 0.0 | 3.2 | 0.00 | 0.00 | 0.00 | 73 | 1013.5 |
| 20260505040051 | 14 | 109 | 0.0 | 0.0 | 0.00 | 0.00 | 0.00 | 73 | 1013.4 |
| 20260505034611 | 14 | 109 | 0.0 | 0.0 | 0.00 | 0.00 | 0.00 | 73 | 1013.4 |
| 20260505033053 | 14 | 109 | 0.0 | 0.0 | 0.00 | 0.00 | 0.00 | 73 | 1013.2 |
| 20260505031532 | 14 | 109 | 0.0 | 1.6 | 0.00 | 0.00 | 0.00 | 73 | 1013.2 |
| 20260505030032 | 15 | 109 | 0.0 | 3.2 | 0.00 | 0.00 | 0.00 | 72 | 1013.1 |
| 20260505024513 | 15 | 109 | 0.0 | 3.2 | 0.00 | 0.00 | 0.00 | 72 | 1013.0 |
| 20260505023014 | 15 | 109 | 0.0 | 1.6 | 0.00 | 0.00 | 0.00 | 71 | 1012.9 |
| 20260505021556 | 15 | 109 | 0.0 | 1.6 | 0.00 | 0.00 | 0.00 | 70 | 1012.8 |
| 20260505020058 | 15 | 109 | 0.0 | 3.2 | 0.00 | 0.00 | 0.00 | 70 | 1013.0 |
| 20260505014536 | 15 | 109 | 0.0 | 1.6 | 0.00 | 0.00 | 0.00 | 69 | 1013.0 |